Regional Weather Roundup
Issued by NWS Newport/Morehead, NC

Current Version | Previous Version | Graphics & Text | Print | Product List | Glossary Off
Versions: 1 2 3 4 5 6 7 8 9 10 11 12 13 14 15 16 17 18 19 20 21 22 23 24 25 26 27 28 29 30 31 32 33 34 35 36 37 38 39 40 41 42 43 44 45 46 47 48 49 50

555
ASUS42 KMHX 091525
RWRMHX
WEATHER ROUNDUP FOR EASTERN NORTH CAROLINA
NATIONAL WEATHER SERVICE NEWPORT/MOREHEAD CITY NC
1000 AM EST TUE FEB 09 2016

NOTE: "FAIR" INDICATES FEW OR NO CLOUDS BELOW 12,000 FEET
WITH NO SIGNIFICANT WEATHER AND/OR OBSTRUCTIONS TO VISIBILITY

NCZ015>017-031-032-045>047-102-103-091600-
NORTH COAST

CITY           SKY/WX    TMP DP  RH WIND       PRES   REMARKS
EDENTON        SUNNY     46  32  58 W14G21    29.64S
ELIZABETH CITY MOSUNNY   43  37  79 W13       29.61S
KITTY HAWK     MOSUNNY   44  37  76 W14G21    29.60R
MANTEO         SUNNY     44  37  74 W10       29.62R

$$

NCZ045>047-081-094-103-104-091600-
CENTRAL COAST

CITY           SKY/WX    TMP DP  RH WIND       PRES   REMARKS
FRISCO         SUNNY     45  36  70 W9        29.64R
SWANQUARTER      N/A     45 N/A N/A W12G21    29.62S

$$

NCZ095-097-098-100-101-091600-
SOUTHERN COAST

CITY           SKY/WX    TMP DP  RH WIND       PRES   REMARKS
BEAUFORT       MOSUNNY   44  35  70 NW15      29.68S
CEDAR ISLAND     N/A     45 N/A N/A W14G20    29.71S
JACKSONVILLE   MOSUNNY   44  35  70 W14G21    29.70R
PINEY ISLAND   MOSUNNY  N/A N/A N/A W16       29.66S
WILMINGTON     MOSUNNY   45  32  60 W13       29.74R


$$

NCZ011>013-027>030-043-044-078>080-089-090>093-098-091600-
COASTAL PLAIN

CITY           SKY/WX    TMP DP  RH WIND       PRES   REMARKS
AHOSKIE        MOSUNNY   42  31  66 W5        29.64S
CLINTON        MOSUNNY   39  36  91 SW6       29.71F
ELIZABETHTOWN  MOSUNNY   40  28  62 W12G18    29.74R
GOLDSBORO      CLOUDY    41  41 100 W15       29.67R
GREENVILLE     PTSUNNY   43  34  70 W9        29.70S
HAVELOCK       PTSUNNY   44  36  73 W9        29.69R
KENANSVILLE    CLOUDY    41  35  81 W9G20     29.72R
KINSTON        SUNNY     43  37  81 W8        29.69R
NEW BERN       MOSUNNY   44  35  70 W13G18    29.69R
RICHLANDS      CLOUDY    45  34  65 SW14G21   29.71R
ROCKY MOUNT    CLOUDY    41  32  70 W8        29.66S
WASHINGTON     MOSUNNY   45  32  60 W12G18    29.66R
WHITEVILLE     SUNNY     41  25  53 W13G18    29.76R

$$

AMZ130-135-150-152-154-156-158-170-250-252-270-ANZ085-086-088-633-658-670-091600-
MARINE OBSERVATIONS

STATION/POSITION TIME  TEMP    WIND        PRES    WAVE   SWELL
                       AIR SEA DIR/SP/G            HT/PER HT/PER
                 (UTC) (F)     (DEG/KT/KT) (MB)    (FT/S) (FT/S)
CHESAPEAKE LIGHT 1500   45     300/ 12/ 12 1002.2
64 E VA BEACH    1450   46 52  290/ 21/ 25 1000.1   11/15  10/15
DUCK             1500   41     260/ 12/ 15 1002.0
2 E DUCK         1511      44                N/A     7/13   7/13
OREGON INLET     1500   44 45  270/  9/ 14 1002.7
13E OREGON INLT  1500      47                N/A    11/15  10/15
HATTERAS CG      1500   44 52  270/ 16/ 20 1003.2
DIAMOND BUOY     1450   47 73  280/ 17/ 23 1003.4   11/14  10/14
CAPE LOOKOUT     NOT AVBL
BEAUFORT LAB     1500   44 47  310/  6/ 13 1004.0
30 SE NEW RVR IN 1508   47 61              1005.7
30 SE NEW RVR IN 1425      60                N/A     7/ 7   3/15
27 SE WRIGHTSVLE 1508   38     360/ 21/ 31 1005.6
5 SE WRIGHTSVLE  NOT AVBL
225 S CAPE HAT   1450   57 69  280/ 29/ 35   N/A    18/11  11/11
41 SE CHARLESTON 1450   47 65  260/ 25/ 33 1010.2    8/ 7   2/14

$$




USA.gov is the U.S. government's official web portal to all federal, state and local government web resources and services.